SCOUT B R/B, 3341

Orbit data source: Space-Track

SCOUT B R/B, 3341 is space debris in LEO originally from a launch on Thu, 08 Aug 1968 UTC launched from the Air Force Western Test Range (AFWTR). Debris objects in space refer to the collection of defunct objects orbiting the Earth. Examples of debris include non-operational satellites, rocket bodies, and fragments generated from explosions, collisions, or faulty payload assembly.

Loading next visibility...
Identifier
3341, 1968-066C
Orbit
LEO
Last TLE update
1 day ago
Origin
Manufacturer
UTC
Mission
Spacecraft
Bus & Motor
FW4, Unknown motor
Mass
47 kg wet, 47 kg dry
Launch date (UTC)
1968-08-08 (57 years ago)
Launch vehicle
Unknown
Launch site
Air Force Western Test Range (AFWTR)
Object type
Payload
Rocket body
Debris
Shape & HBR
Cyl, 1.5 m
Radar Cross Section
0.687 m², Medium (>0.1 m² and < 1m²)

Expand to show TLE details & history

TLE from 1 day ago
0 SCOUT B R/B
1 03341U 68066C   25181.73734773  .00000263  00000-0  27278-3 0  9995
2 03341  80.6624 321.9541 1117275 208.2402 145.3506 12.26001640520447
Epoch: 2025-06-30T17:41Z
TLE epoch observation values (Epoch: 2025-06-30T17:41:46.843Z)
Latitude
Longitude
137.46606°
Altitude
2,327.526 km
Speed
6.437 km/s
True Right ascension
21h 27m 48s
True Declination
0° 00' 00"
Sunlit
Object was in partial shadow at epoch
Visualization orbit readout
Latitude
72.75213°
Longitude
168.51714°
Altitude
2,098.025 km
Speed
6.636 km/s
Apparent Right ascension
19h 12m 33s
Apparent Declination
36° 30' 54"
Sunlit
Object is in daylight
Visualization observer readout
Local Sidereal Time
05:21:34
Azimuth
337.711° N
Elevation
-9.424°
Doppler factor
1
Orbital elements
Apogee altitude
2,451.257 km
Perigee altitude
676.566 km
Semi-major axis
7,942.049 km
Eccentricity
0.11173
Inclination
80.6624°
RAAN
321.9541°
Arg. of periapsis
208.2402°
True anomaly
Unknown
Mean anomaly
145.3506°
Eccentric anomaly
Unknown
Mean motion
3.06651 °/min
Orbital period
117.4 mins
BSTAR
0.00027278
Loading maneuver chart data...
Loading SW <> Apogee altitude chart data...
Loading historical data...
Loading historical data...
Loading historical data...
Loading historical data...
Loading historical data...
Loading historical data...
Loading historical data...

SCOUT B R/B Visibility forecast

Observer location: undefined°, undefined°

Span
Click to sort rows by Start time (UTC) header in descending order
Start Az.
Max El. time (UTC)
Max El. Az.
Max El.
End time (UTC)
End Az.
12 mins2025-07-01 19:51:55.767Z4.491° NNE2025-07-01 19:58:55.767Z58.781° ENE26.202°2025-07-01 20:03:55.767Z117.633° SE
11 mins2025-07-01 21:51:55.767Z336.062° NNW2025-07-01 21:57:55.767Z280.007° WNW33.785°2025-07-01 22:02:55.767Z207.575° SW
23 mins2025-07-02 08:56:55.767Z154.464° SSE2025-07-02 09:07:55.767Z91.939° ESE37.476°2025-07-02 09:19:55.767Z20.201° NNE
24 mins2025-07-02 10:54:55.767Z212.985° SW2025-07-02 11:06:55.767Z286.256° WNW39.497°2025-07-02 11:18:55.767Z2.536° NNE
11 mins2025-07-02 13:03:55.767Z285.706° WNW2025-07-02 13:08:55.767Z309.287° NW14.483°2025-07-02 13:14:55.767Z338.862° N
|